EA1GLE Weather Reports


time (UTC)temp
F
wind
direction
speed
knots
gust
knots
rain 1hr
in
rain 24hr
in
rain mn
in
humidity
%
barometer
mb
20260503050004 48 0 0.0 0.0 0.00 0.65 0.00 99 1015.6
20260503045403 48 0 0.0 0.0 0.00 0.65 0.00 99 1015.6
20260503044504 48 0 0.0 0.0 0.00 0.65 0.00 99 1015.6
20260503042703 49 0 0.0 0.0 0.00 0.65 0.00 99 1015.9
20260503041803 49 0 0.0 0.0 0.00 0.65 0.00 99 1015.9
20260503041117 49 0 0.0 0.0 0.00 0.65 0.00 99 1015.9
20260503040003 49 0 0.0 0.0 0.00 0.65 0.00 99 1015.6
20260503035618 49 0 0.0 0.0 0.00 0.65 0.00 99 1015.9
20260503034503 49 0 0.0 0.0 0.00 0.65 0.00 99 1015.8
20260503032918 49 0 0.0 0.0 0.00 0.65 0.00 99 1016.0
20260503031803 49 0 0.0 0.0 0.00 0.65 0.00 99 1016.0
20260503030903 49 0 0.0 0.0 0.00 0.65 0.00 99 1015.9
20260503030003 48 0 0.0 0.0 0.00 0.65 0.00 99 1016.0
20260503025403 49 0 0.0 0.0 0.00 0.65 0.00 99 1016.0
20260503023603 48 0 0.0 0.0 0.00 0.65 0.00 99 1015.8
20260503022703 48 95 0.0 0.9 0.00 0.65 0.00 99 1016.1
20260503021803 49 61 0.0 1.7 0.00 0.65 0.00 99 1016.1
20260503020903 49 48 0.0 1.7 0.00 0.65 0.00 99 1016.1
20260503020003 49 53 0.0 1.7 0.00 0.65 0.00 99 1016.3
20260503013603 50 0 0.0 0.0 0.00 0.65 0.00 99 1016.2
20260503012703 49 0 0.0 0.0 0.00 0.65 0.00 99 1016.5
20260503011803 49 37 0.0 1.7 0.00 0.65 0.00 99 1016.3
20260503010903 49 345 0.0 0.9 0.00 0.65 0.00 99 1016.6
20260503010003 49 43 0.0 1.7 0.00 0.65 0.00 99 1016.5
20260503004503 49 0 0.0 0.0 0.00 0.65 0.00 99 1016.7
20260503003603 49 55 0.0 1.7 0.00 0.65 0.00 99 1016.8
20260503002703 49 268 0.0 1.7 0.00 0.65 0.00 99 1016.9
20260503002018 49 42 0.0 0.9 0.00 0.65 0.00 99 1016.7
20260503001118 49 0 0.0 0.0 0.00 0.65 0.00 99 1016.9
20260502235403 50 155 0.0 2.6 0.00 0.65 0.00 99 1017.0
20260502234503 49 342 0.0 1.7 0.00 0.65 0.00 99 1016.9
20260502233603 49 0 0.0 0.0 0.00 0.65 0.00 99 1017.0
20260502232703 49 0 0.0 0.0 0.00 0.65 0.00 99 1017.1
20260502231803 50 0 0.0 0.0 0.00 0.65 0.00 99 1017.0
20260502230903 49 0 0.0 0.0 0.00 0.65 0.00 99 1016.9
20260502230003 50 66 0.0 0.9 0.00 0.65 0.00 99 1017.0
20260502225403 50 58 0.0 0.9 0.00 0.65 0.00 99 1017.1
20260502224503 50 58 0.0 0.9 0.00 0.65 0.00 99 1016.9
20260502223603 49 0 0.0 0.0 0.00 0.65 0.00 99 1016.8
20260502221803 50 0 0.0 0.0 0.00 0.65 0.00 99 1017.0
20260502220903 50 40 0.0 2.6 0.00 0.65 0.00 99 1017.0
20260502220003 50 45 1.7 2.6 0.00 0.65 0.00 99 1016.7
20260502215403 51 49 0.9 2.6 0.00 0.65 0.65 99 1016.9
20260502214503 51 61 0.0 1.7 0.00 0.65 0.65 99 1017.1
20260502213603 51 0 0.0 0.0 0.00 0.65 0.65 99 1016.9
20260502211116 52 65 0.0 1.7 0.00 0.65 0.65 99 1017.2
20260502210003 52 75 0.0 1.7 0.00 0.65 0.65 99 1017.0
20260502205403 52 61 0.9 2.6 0.00 0.65 0.65 99 1016.8
20260502204717 52 55 0.9 2.6 0.00 0.65 0.65 99 1017.1
20260502203818 52 59 0.0 1.7 0.00 0.65 0.65 99 1017.4
20260502201803 52 0 0.0 0.0 0.00 0.65 0.65 99 1016.8
20260502200903 52 0 0.0 0.0 0.00 0.65 0.65 99 1016.5
20260502200217 52 52 0.0 1.7 0.00 0.65 0.65 99 1016.7
20260502195403 52 63 0.0 0.9 0.00 0.65 0.65 99 1016.7
20260502194716 52 59 0.0 0.9 0.00 0.65 0.65 99 1016.6
20260502192917 53 54 0.9 1.7 0.00 0.65 0.65 99 1016.4
20260502191803 53 68 0.0 1.7 0.01 0.65 0.65 99 1016.5
20260502190903 53 52 0.9 2.6 0.02 0.65 0.65 99 1016.2
20260502190004 54 55 0.9 1.7 0.02 0.65 0.65 99 1016.2
20260502185617 54 64 0.9 1.7 0.02 0.65 0.65 99 1016.5
20260502184503 54 79 0.0 1.7 0.02 0.65 0.65 99 1016.2
20260502183603 54 60 0.9 3.5 0.02 0.65 0.65 99 1016.2
20260502181803 54 234 0.9 1.7 0.01 0.64 0.64 99 1016.8
20260502180903 54 176 0.9 1.7 0.00 0.63 0.63 99 1016.8
20260502163603 54 58 0.0 0.9 0.04 0.50 0.50 91 1017.0
20260502162703 55 72 0.0 0.9 0.03 0.49 0.49 89 1016.8
20260502161803 55 167 0.9 2.6 0.02 0.48 0.48 86 1016.6
20260502160903 56 274 2.6 6.1 0.01 0.47 0.47 78 1016.6
20260502160218 57 271 2.6 6.1 0.00 0.46 0.46 77 1016.8
20260502123603 56 168 2.6 5.2 0.11 0.22 0.22 96 1018.4
20260502120903 55 230 3.5 7.0 0.18 0.21 0.21 96 1018.5
20260502115403 55 231 4.3 8.7 0.13 0.14 0.15 94 1018.9
20260502114503 55 206 3.5 7.0 0.11 0.12 0.12 94 1018.9
20260502113603 56 198 3.5 7.8 0.10 0.11 0.11 93 1018.9
20260502112703 55 196 4.3 8.7 0.06 0.07 0.07 91 1018.9
20260502110903 58 185 7.0 15.6 0.02 0.03 0.03 85 1018.9
20260502110003 60 169 5.2 13.9 0.00 0.01 0.01 81 1018.5
20260502105403 60 150 4.3 13.9 0.00 0.01 0.01 82 1018.1
20260502104503 60 164 6.1 15.6 0.00 0.01 0.01 81 1018.0
20260502103816 61 161 6.1 13.0 0.00 0.01 0.01 76 1018.6
20260502101803 62 159 5.2 12.2 0.00 0.01 0.01 78 1018.8
20260502101118 61 161 5.2 13.0 0.00 0.01 0.01 78 1019.0
20260502090903 60 162 6.1 13.0 0.01 0.01 0.01 83 1019.2
20260502070903 58 95 1.7 6.1 0.00 0.00 0.00 84 1019.2
20260502070003 58 96 1.7 6.1 0.00 0.00 0.00 84 1019.3
20260502065618 58 98 1.7 6.1 0.00 0.00 0.00 84 1019.5
20260502064503 58 65 1.7 3.5 0.00 0.00 0.00 84 1019.4
20260502063603 57 67 1.7 7.0 0.00 0.00 0.00 84 1019.1
20260502062703 57 78 1.7 5.2 0.00 0.00 0.00 84 1019.2
20260502061803 57 94 1.7 7.8 0.00 0.00 0.00 84 1019.2
20260502060903 57 90 1.7 7.8 0.00 0.00 0.00 84 1019.4
20260502060003 57 94 1.7 6.1 0.00 0.00 0.00 84 1019.2
20260502052703 57 80 1.7 5.2 0.00 0.00 0.00 84 1019.0
20260502052017 57 81 1.7 6.1 0.00 0.00 0.00 83 1019.3
20260502051118 57 83 1.7 6.1 0.00 0.00 0.00 83 1019.2